Regional Weather Roundup
Issued by NWS Portland, ME

Home | Current Version | Previous Version | Text Only | Print | Product List | Glossary On
Versions: 1 2 3 4 5 6 7 8 9 10 11 12 13 14 15 16 17 18 19 20 21 22 23 24 25 26 27 28 29 30 31 32 33 34 35 36 37 38 39 40 41 42 43 44 45 46 47 48 49 50
000
ASUS41 KGYX 210210
RWRGYX
WEATHER ROUNDUP FOR MAINE AND NEW HAMPSHIRE
NATIONAL WEATHER SERVICE GRAY ME
1000 PM EDT SAT SEP 20 2014

MEZ002-005-006-010-012-015-018-020-021-024-026-027-029-210300-
MAINE

CITY           SKY/WX    TMP DP  RH WIND       PRES   REMARKS
PORTLAND       MOCLDY    64  53  67 S15       30.09F
SANFORD        PTCLDY    61  52  72 S7        30.11F
BAR HARBOR     PTCLDY    57  55  94 S9        30.11F
WISCASSET      CLEAR     61  55  81 S7        30.11F
ROCKLAND       PTCLDY    61  55  82 S10G18    30.10F
FRYEBURG       CLOUDY    56  52  86 CALM      30.07F
LEWISTONAUBURN MOCLDY    55  52  88 CALM      30.08F
AUGUSTA        CLEAR     57  54  89 S6        30.08F
WATERVILLE     CLOUDY    57  52  82 S7        30.02F
BANGOR         MOCLDY    58  52  80 S13       30.07F
GREENVILLE       N/A     53  51  93 S13G21    29.97F
MILLINOCKET    MOCLDY    57  51  80 VRB5      30.02F
HOULTON        MOCLDY    56  49  77 SW14G21   29.99F
PRESQUE ISLE   CLOUDY    55  48  76 S9        29.95S
FRENCHVILLE    LGT RAIN  50  49  96 SE8       29.91F
CARIBOU        LGT RAIN  55  50  83 S13       29.94F
$$

NHZ002-005-008-009-011-012-014-210300-
NEW HAMPSHIRE

CITY           SKY/WX    TMP DP  RH WIND       PRES   REMARKS
PORTSMOUTH     MOCLDY    60  53  76 S6        30.10F
ROCHESTER      CLEAR     62  53  72 S6        30.10F
NASHUA         CLEAR     62  55  77 CALM      30.11F
MANCHESTER     MOCLDY    63  52  67 S9        30.09F
CONCORD        CLEAR     60  54  80 SE8       30.09F
LACONIA        CLOUDY    63  54  72 S12G20    30.06F
PLYMOUTH       CLOUDY    51  51 100 CALM      30.07F
BERLIN         CLEAR     56  52  86 S6        30.01F
WHITEFIELD     MOCLDY    62  53  72 SW5       30.02F
JAFFREY        CLEAR     59  54  83 S10       30.12F
LEBANON        CLOUDY    65  55  70 S15G22    30.03F
MT WASHINGTON  FOG       45  45 100 W44G52      N/A  VSB 0
$$

VTZ005-007-008-210300-
VERMONT

CITY           SKY/WX    TMP DP  RH WIND       PRES   REMARKS
ST JOHNSBURY     N/A     61  55  81 MISG      29.99F
MONTPELIER     PTCLDY    59  55  87 S9        30.04F
BURLINGTON     CLEAR     67  56  67 S17G29    29.94R
$$

MAZ007-012-024-CTZ003-RIZ002-NYZ038-NYZ072-210300-
SOUTHERN NEW ENGLAND AND NY

CITY           SKY/WX    TMP DP  RH WIND       PRES   REMARKS
BOSTON         CLEAR     63  55  75 S13       30.13F
WORCESTER      CLEAR     57  54  89 SW8       30.14F
NANTUCKET      PTCLDY    63  59  87 SE8       30.17F
PROVIDENCE     CLEAR     58  54  86 S3        30.16S
HARTFORD       CLEAR     62  54  74 S5        30.11F
ALBANY         PTCLDY    67  57  70 S17G25    30.02F
NEW YORK CITY  PTCLDY    69  63  81 S10       30.09F
$$

ANZ081-ANZ082-ANZ150-NHZ014-MEZ023>029-210300-
COASTAL MARINE OBSERVATIONS

STATION/POSITION TIME  TEMP    WIND        PRES    WAVE
                       AIR SEA DIR/SP/G            HT/PER
                 (UTC) (F)     (DEG/KT/KT) (MB)    (FT/S)
MATINICUS ROCK   0200          190/ 20/ 22 1019.6F
PORTLAND WX BUOY 0150   61 58  200/ 16/ 19 1018.8F   4/ 6
WELLS            0100   64 57  200/ 11/ 15 1018.9F
ISLE OF SHOALS   0200   62     180/ 12/ 13 1019.4F
JEFFREYS LEDGE   0121      60                N/A     4/ 5
CASHES LEDGE BUO 0150   64 61              1020.1F   5/ 6
$$

.............KEY..............
   WCI - WIND CHILL
   TC  - TEMPERATURE IN CELSIUS
   VSB - VISIBILITY IN MILES
   HX  - HEAT INDEX
   FAIR- INDICATES FEW OR NO CLOUDS BELOW 12,000 FT, WITH NO
         SIGNIFICANT WEATHER AND/OR OBSTRUCTIONS TO VISIBILITY.





USA.gov is the U.S. government's official web portal to all federal, state and local government web resources and services.